Location: Goettingen
(51.5300°N, 9.9433°E)
Time: 22:19:47
(UTC+02:00)

ISS - Pass Details

Date: 23 July 2021
Orbit: 419 x 421 km, 51.6° (Epoch: 28 July)

Event Time Altitude Azimuth Distance (km) Brightness Sun altitude
Rises 23:03:48 0° 280° (W) 2,373 0.8 -12.0°
Reaches altitude 10° 23:05:55 10° 279° (W) 1,507 -0.3 -12.2°
Maximum altitude 23:09:17 73° 195° (SSW) 443 -3.8 -12.5°
Enters shadow 23:11:41 18° 112° (ESE) 1,117 -2.1 -12.7°
